Showing default

LUNA-1, 66777

Orbit data source: Space-Track

LUNA-1, 66777 is a payload satellite owned by Aselsan (TR) in SSO that was launched on Fri, 28 Nov 2025 UTC via an FALCON 9 launch vehicle from the Air Force Western Test Range (AFWTR). Payload-class satellites include a variety of spacecraft equipped with specific instruments for various scientific and technological missions. These include communications satellites like Starlink; space stations such as the ISS; scientific satellites like the Hubble; Earth observation satellites from companies like Planet Labs, Umbra, and HawkEye 360; GPS; miniature CubeSats for education and research; and military/defense satellites.

Loading next visibility...
Identifier
66777, 2025-276DR
Orbit
SSO
Country
Flag of TRTR / TURK
Related business
Manufacturer
Aselsan
Mission
Operational Commercial Communications
Bus & Motor
CUBESAT 6U?, Unknown motor
Mass
~12 kg wet, ~12 kg dry
Launch date (UTC)
2025-11-28 (9 months ago)
Launch vehicle
FALCON 9
Launch site
Air Force Western Test Range (AFWTR)
Object type
Payload
Rocket body
Debris
Shape & HBR
Box, 0.2 m
Radar Cross Section
0.080 m², Medium (>0.1 m² and < 1m²)

Expand to show TLE details & history
Last TLE update: 15 hours ago

TLE from 15 hours ago
0 LUNA-1
1 66777U 25276DR  26238.21089653  .00007155  00000-0  29941-3 0  9996
2 66777  97.4215 311.7849 0001831  33.5458 326.5894 15.23872925 41126
Epoch: 2026-08-26T05:03Z
TLE epoch observation values (Epoch: 2026-08-26T05:03:41.460Z)
Latitude
-0.00009°
Longitude
-98.60499°
Altitude
496.217 km
Speed
7.617 km/s
True Right ascension
20h 47m 08s
True Declination
0° 00' 00"
Sunlit
Object was in full shadow at epoch
Visualization orbit readout
Latitude
Unknown
Longitude
Unknown
Altitude
Unknown
Speed
Unknown
Apparent Right ascension
Unknown
Apparent Declination
Unknown
Sunlit
N/A
Visualization observer readout
Local Sidereal Time
11:47:39
Azimuth
Unknown
Elevation
Unknown
Doppler factor
Unknown
Orbital elements
Apogee altitude
492.391 km
Perigee altitude
489.875 km
Semi-major axis
6,869.27 km
Eccentricity
0.00018
Inclination
97.4215°
RAAN
311.7849°
Arg. of periapsis
33.5458°
True anomaly
326.57784°
Mean anomaly
326.5894°
Eccentric anomaly
326.58362°
Mean motion
3.81221 °/min
Orbital period
94.43 mins
BSTAR
0.00029941
Loading maneuver chart data...
Computing Atmospheric mass density...
Loading historical data...
Loading historical data...
Loading historical data...
Loading historical data...
Loading historical data...
Loading historical data...
Loading historical data...

Documentation

Showing up to 5 results
|